Carroll, IA

10:26 PM CDT on July 24, 2017 (GMT -0500)
Neu

Weather History for KCIN - January, 2014

Change the Weather History Date:

Friday, January 24, 2014

  Actual Average Record
Temperature  
Mean Temperature 26 °F -  
Max Temperature 44 °F 30 °F 63 °F (1981)
Min Temperature 8 °F 12 °F -16 °F (1961)
Degree Days  
Heating Degree Days 39    
Moisture  
Dew Point 14 °F    
Average Humidity 56    
Maximum Humidity 93    
Minimum Humidity 39    
Precipitation  
Precipitation 0.00 in - - ()
Sea Level Pressure  
Sea Level Pressure 29.87 in    
Wind  
Wind Speed 23 mph (WSW)    
Max Wind Speed 39 mph    
Max Gust Speed 47 mph    
Visibility 10 miles    
Events      
Averages and records for this station are not official NWS values.
T = Trace of Precipitation, MM = Missing Value Source: NWS Daily Summary

Daily Weather History Graph

Daily Weather History Graph

Search for Another Location

Airport or City:

Trip Planner

Search our weather history database for the weather conditions in past years. The results will help you decide how hot, cold, wet, or windy it might be!

Date:

Astronomy

Jan. 24, 2014 Rise Set
Actual Time 7:39 AM CST 5:23 PM CST
Civil Twilight 7:09 AM CST 5:54 PM CST
Nautical Twilight 6:35 AM CST 6:27 PM CST
Astronomical Twilight 6:01 AM CST 7:01 PM CST
Moon 1:05 AM CST (1/24) 11:44 AM CST (1/24)
Length of Visible Light 10h 45m
Length of Day
9h 44m
Last Quarter, 44% of the Moon is Illuminated
Jan 24
Last Quarter
Jan 30
New
Feb 6
First Quarter
Feb 14
Full
Feb 22
Last Quarter

Hourly Weather History & Observations

Time (CST) Temp. Windchill Dew Point Humidity Pressure Visibility Wind Dir Wind Speed Gust Speed Precip Events Conditions
12:15 AM 8.6 °F -11.0 °F -7.6 °F 48% 30.37 in 10.0 mi SW 20.7 mph 26.5 mph N/A   Clear
12:35 AM 8.6 °F -10.0 °F -5.8 °F 52% 30.36 in 10.0 mi SW 18.4 mph - N/A   Partly Cloudy
12:55 AM 8.6 °F -11.0 °F -7.6 °F 48% 30.33 in 10.0 mi SSW 20.7 mph - N/A   Partly Cloudy
1:15 AM 8.6 °F -11.0 °F -7.6 °F 48% 30.30 in 10.0 mi SSW 20.7 mph - N/A   Clear
1:35 AM 8.6 °F -11.0 °F -5.8 °F 52% 30.28 in 10.0 mi SSW 20.7 mph - N/A   Partly Cloudy
1:55 AM 10.4 °F -9.1 °F -5.8 °F 48% 30.25 in 10.0 mi SSW 21.9 mph - N/A   Clear
2:15 AM 10.4 °F -9.9 °F -5.8 °F 48% 30.24 in 10.0 mi SW 24.2 mph 32.2 mph N/A   Clear
2:35 AM 12.2 °F -8.6 °F -5.8 °F 45% 30.21 in 10.0 mi SW 27.6 mph 38.0 mph N/A   Clear
2:55 AM 12.2 °F -8.6 °F -5.8 °F 45% 30.20 in 10.0 mi SW 27.6 mph 36.8 mph N/A   Clear
3:15 AM 12.2 °F -8.6 °F -5.8 °F 45% 30.18 in 10.0 mi SW 27.6 mph 39.1 mph N/A   Clear
3:35 AM 12.2 °F -8.6 °F -4.0 °F 48% 30.16 in 10.0 mi SW 27.6 mph 38.0 mph N/A   Clear
3:55 AM 12.2 °F -8.9 °F -4.0 °F 48% 30.13 in 10.0 mi SW 28.8 mph 38.0 mph N/A   Clear
4:15 AM 12.2 °F -9.3 °F -4.0 °F 48% 30.11 in 10.0 mi SW 29.9 mph 38.0 mph N/A   Clear
4:35 AM 14.0 °F -6.8 °F -2.2 °F 49% 30.10 in 10.0 mi SW 29.9 mph 36.8 mph N/A   Clear
4:55 AM 14.0 °F -6.5 °F -2.2 °F 49% 30.08 in 10.0 mi SW 28.8 mph 36.8 mph N/A   Clear
5:15 AM 14.0 °F -4.7 °F -0.4 °F 53% 30.06 in 10.0 mi SW 23.0 mph 39.1 mph N/A   Clear
5:35 AM 14.0 °F -7.4 °F -0.4 °F 53% 30.02 in 10.0 mi SW 32.2 mph 39.1 mph N/A   Partly Cloudy
5:55 AM 14.0 °F -9.1 °F -0.4 °F 53% 29.98 in 10.0 mi SW 39.1 mph - N/A   Scattered Clouds
6:15 AM 15.8 °F -5.2 °F 1.4 °F 53% 29.98 in 10.0 mi SW 33.4 mph 46.0 mph N/A   Scattered Clouds
6:35 AM 15.8 °F -5.0 °F 1.4 °F 53% 29.97 in 10.0 mi SW 32.2 mph 47.2 mph N/A   Scattered Clouds
6:55 AM 15.8 °F -4.4 °F 1.4 °F 53% 29.98 in 10.0 mi SW 29.9 mph 38.0 mph N/A   Mostly Cloudy
7:15 AM 15.8 °F -4.1 °F 3.2 °F 58% 29.96 in 10.0 mi SW 28.8 mph 42.6 mph N/A   Partly Cloudy
7:35 AM 15.8 °F -4.7 °F 3.2 °F 58% 29.95 in 10.0 mi SW 31.1 mph 41.4 mph N/A   Mostly Cloudy
7:55 AM 15.8 °F -4.4 °F 3.2 °F 58% 29.95 in 10.0 mi SW 29.9 mph 40.3 mph N/A   Overcast
8:15 AM 17.6 °F -1.6 °F 5.0 °F 58% 29.94 in 10.0 mi SW 28.8 mph 35.7 mph N/A   Overcast
8:35 AM 17.6 °F -2.8 °F 5.0 °F 58% 29.92 in 10.0 mi SW 33.4 mph 40.3 mph N/A   Overcast
8:55 AM 17.6 °F -1.6 °F 6.8 °F 63% 29.92 in 10.0 mi WSW 28.8 mph 39.1 mph N/A   Overcast
9:15 AM 19.4 °F 0.8 °F 6.8 °F 58% 29.92 in 10.0 mi WSW 28.8 mph 38.0 mph N/A   Overcast
9:35 AM 19.4 °F 0.8 °F 6.8 °F 58% 29.92 in 10.0 mi WSW 28.8 mph - N/A   Overcast
9:55 AM 21.2 °F 5.2 °F 6.8 °F 54% 29.93 in 10.0 mi WSW 21.9 mph 27.6 mph N/A   Overcast
10:15 AM 23.0 °F 10.1 °F 8.6 °F 54% 29.91 in 10.0 mi WSW 15.0 mph 28.8 mph N/A   Overcast
10:35 AM 24.8 °F 10.0 °F 8.6 °F 50% 29.91 in 10.0 mi WSW 21.9 mph 29.9 mph N/A   Overcast
10:55 AM 26.6 °F 14.3 °F 10.4 °F 51% 29.89 in 10.0 mi SW 16.1 mph 29.9 mph N/A   Overcast
11:15 AM 26.6 °F 13.1 °F 10.4 °F 51% 29.88 in 10.0 mi WSW 19.6 mph 25.3 mph N/A   Overcast
11:35 AM 30.2 °F 18.5 °F 12.2 °F 47% 29.87 in 10.0 mi WSW 17.3 mph 27.6 mph N/A   Partly Cloudy
11:55 AM 32.0 °F 20.1 °F 12.2 °F 44% 29.85 in 10.0 mi WSW 19.6 mph 29.9 mph N/A   Clear
12:15 PM 32.0 °F 19.8 °F 12.2 °F 44% 29.83 in 10.0 mi WSW 20.7 mph 28.8 mph N/A   Mostly Cloudy
12:35 PM 33.8 °F 21.9 °F 14.0 °F 44% 29.81 in 10.0 mi WSW 21.9 mph - N/A   Scattered Clouds
12:55 PM 33.8 °F 20.8 °F 12.2 °F 41% 29.80 in 9.0 mi WSW 26.5 mph - N/A   Clear
1:15 PM 35.6 °F 24.2 °F 14.0 °F 41% 29.78 in 10.0 mi WSW 21.9 mph - N/A   Clear
1:35 PM 37.4 °F 26.4 °F 15.8 °F 41% 29.77 in 9.0 mi WSW 23.0 mph - N/A   Scattered Clouds
1:55 PM 37.4 °F 26.9 °F 15.8 °F 41% 29.76 in 10.0 mi West 20.7 mph 27.6 mph N/A   Overcast
2:15 PM 37.4 °F 27.5 °F 15.8 °F 41% 29.75 in 10.0 mi West 18.4 mph 26.5 mph N/A   Overcast
2:35 PM 39.2 °F 29.0 °F 17.6 °F 42% 29.73 in 10.0 mi WSW 21.9 mph - N/A   Scattered Clouds
2:55 PM 39.2 °F 30.5 °F 17.6 °F 42% 29.72 in 10.0 mi WSW 16.1 mph 23.0 mph N/A   Partly Cloudy
3:15 PM 39.2 °F 30.2 °F 17.6 °F 42% 29.72 in 9.0 mi WSW 17.3 mph 25.3 mph N/A   Clear
3:35 PM 41.0 °F 32.2 °F 17.6 °F 39% 29.71 in 10.0 mi WSW 18.4 mph - N/A   Clear
3:55 PM 41.0 °F 32.8 °F 17.6 °F 39% 29.70 in 9.0 mi WSW 16.1 mph 23.0 mph N/A   Clear
4:15 PM 41.0 °F 33.5 °F 23.0 °F 49% 29.69 in 10.0 mi West 13.8 mph 20.7 mph N/A   Scattered Clouds
4:35 PM 42.8 °F 35.1 °F 26.6 °F 53% 29.68 in 10.0 mi West 16.1 mph - N/A   Overcast
4:55 PM 42.8 °F 35.8 °F 28.4 °F 57% 29.68 in 10.0 mi West 13.8 mph - N/A   Overcast
5:15 PM 42.8 °F 36.2 °F 28.4 °F 57% 29.66 in 10.0 mi West 12.7 mph - N/A   Overcast
5:35 PM 41.0 °F 34.3 °F 28.4 °F 61% 29.66 in 10.0 mi WSW 11.5 mph - N/A   Overcast
5:55 PM 42.8 °F 36.2 °F 28.4 °F 57% 29.65 in 10.0 mi West 12.7 mph - N/A   Overcast
6:15 PM 42.8 °F 35.1 °F 28.4 °F 57% 29.65 in 10.0 mi WSW 16.1 mph - N/A   Overcast
6:35 PM 42.8 °F 36.6 °F 28.4 °F 57% 29.64 in 10.0 mi West 11.5 mph 18.4 mph N/A   Overcast
6:55 PM 42.8 °F 35.1 °F 28.4 °F 57% 29.64 in 10.0 mi West 16.1 mph 26.5 mph N/A   Overcast
7:15 PM 42.8 °F 34.5 °F 32.0 °F 66% 29.64 in 10.0 mi West 18.4 mph 28.8 mph N/A   Overcast
7:35 PM 42.8 °F 34.8 °F 32.0 °F 66% 29.63 in 10.0 mi West 17.3 mph - N/A   Overcast
7:55 PM 42.8 °F 35.8 °F 32.0 °F 66% 29.62 in 10.0 mi West 13.8 mph - N/A   Overcast
8:15 PM 44.6 °F 35.7 °F 32.0 °F 61% 29.61 in 10.0 mi WNW 24.2 mph - N/A   Overcast
8:35 PM 44.6 °F 36.4 °F 33.8 °F 66% 29.62 in 10.0 mi WNW 20.7 mph 29.9 mph N/A   Overcast
8:55 PM 44.6 °F 36.1 °F 35.6 °F 71% 29.61 in 10.0 mi NW 21.9 mph 32.2 mph N/A   Overcast
9:15 PM 42.8 °F 33.1 °F 35.6 °F 76% 29.62 in 10.0 mi NW 25.3 mph 35.7 mph N/A   Overcast
9:35 PM 42.8 °F 33.8 °F 37.4 °F 81% 29.62 in 10.0 mi NW 21.9 mph 33.4 mph N/A   Overcast
9:55 PM 42.8 °F 33.5 °F 37.4 °F 81% 29.63 in 10.0 mi NW 23.0 mph 32.2 mph N/A   Overcast
10:15 PM 41.0 °F 32.2 °F 35.6 °F 81% 29.64 in 10.0 mi NW 18.4 mph 33.4 mph N/A   Overcast
10:35 PM 41.0 °F 30.9 °F 35.6 °F 81% 29.64 in 10.0 mi NW 24.2 mph - N/A   Overcast
10:55 PM 41.0 °F 30.9 °F 35.6 °F 81% 29.66 in 10.0 mi NW 24.2 mph 35.7 mph N/A   Overcast
11:15 PM 39.2 °F 28.7 °F 37.4 °F 93% 29.67 in 9.0 mi NW 23.0 mph 31.1 mph N/A   Overcast
11:35 PM 39.2 °F 29.3 °F 35.6 °F 87% 29.68 in 10.0 mi NW 20.7 mph 27.6 mph N/A   Overcast
11:55 PM 39.2 °F 28.7 °F 35.6 °F 87% 29.68 in 10.0 mi NW 23.0 mph - N/A   Overcast